Weather in Mirenki

Russia / Chuvash Republic     54°53′57″N   46°23′25″E
temp.,
°C
wind,
m/s
gust,
m/s
humid.,
%
clouds,
%
prec.,
mm/h
press.,
hPa
HPBL,
m
11 april, sun
sun1100:00+1nnw2510094 0.0 1026149
03:00+1nnw2699100 0.0 1027201
06:00+1nnw38100100 0.0 1028257
09:00+3n4699100 0.2 1029299
12:00+7n4580100 0.0 1030453
15:00+7nne3481100 0.0 1032255
18:00+4ne2589100 0.0 1032141
21:00+3nne2495100 1.1 1034132
12 april, mon
mon1200:00+3ne3793100 4.1 1034265
03:00+3ne3993100 5.8 1035295
06:00+3ne51187100 0.3 1036299
09:00+5ene5985100 0.3 1036354
12:00+8e578592 0.0 1036459
15:00+9e5786100 0.0 1035526
18:00+8ene479294 0.0 1035307
21:00+5e3896100 0.0 1035181
13 april, tue
tue1300:00+5ese3795100 0.0 1034134
03:00+6se349399 0.0 103451
06:00+6se2291100 0.0 103430
09:00+12sse467496 0.0 1033274
12:00+16sse575763 0.0 1032844
15:00+18sse564166 0.0 10311303
18:00+14sse34605 0.0 103058
21:00+10sse33675 0.0 103143
14 april, wed
wed1400:00+8sse22695 0.0 103016
03:00+7sse227363 0.0 103013
06:00+6sse227681 0.0 103025
09:00+12sse355987 0.0 1029272
12:00+16sse454345 0.0 1027777
15:00+17sse45341 0.0 10261052
18:00+14se35525 0.0 102481
21:00+10sse33638 0.0 102531
15 april, thu
thu1500:00+8sse22695 0.0 102412
03:00+7sse227480 0.0 102310
06:00+7sse22768 0.0 102311
09:00+12s34585 0.0 1021300
12:00+16ssw23455 0.0 1020914
15:00+18ssw23391 0.0 10191412
18:00+15e00510 0.0 101710
21:00+12e00575 0.0 101610